TimeCDT,TemperatureF,Dew PointF,Humidity,Sea Level PressureIn,VisibilityMPH,Wind Direction,Wind SpeedMPH,Gust SpeedMPH,PrecipitationIn,Events,Conditions,WindDirDegrees,DateUTC
12:55 AM,55.0,45.0,69,30.04,10.0,Calm,Calm,-,N/A,,Clear,0,2012-09-30 05:55:00
1:55 AM,53.1,45.0,74,30.04,10.0,Calm,Calm,-,N/A,,Clear,0,2012-09-30 06:55:00
2:55 AM,55.0,44.1,67,30.03,10.0,Calm,Calm,-,N/A,,Clear,0,2012-09-30 07:55:00
3:55 AM,52.0,45.0,77,30.02,10.0,West,4.6,-,N/A,,Clear,280,2012-09-30 08:55:00
4:55 AM,51.1,46.0,83,30.01,10.0,Calm,Calm,-,N/A,,Clear,0,2012-09-30 09:55:00
5:55 AM,50.0,45.0,83,30.01,10.0,West,6.9,-,N/A,,Clear,270,2012-09-30 10:55:00
6:55 AM,48.0,44.1,86,30.01,10.0,West,4.6,-,N/A,,Clear,270,2012-09-30 11:55:00
7:55 AM,50.0,44.1,80,30.01,10.0,Calm,Calm,-,N/A,,Clear,0,2012-09-30 12:55:00
8:55 AM,55.9,44.1,64,30.01,10.0,Calm,Calm,-,N/A,,Clear,0,2012-09-30 13:55:00
9:55 AM,61.0,44.1,54,30.01,10.0,Calm,Calm,-,N/A,,Clear,0,2012-09-30 14:55:00
10:55 AM,68.0,45.0,43,30.01,10.0,Calm,Calm,-,N/A,,Clear,0,2012-09-30 15:55:00
11:55 AM,72.0,39.9,31,30.00,10.0,Variable,4.6,-,N/A,,Clear,0,2012-09-30 16:55:00
12:55 PM,72.0,39.0,30,29.99,10.0,South,5.8,-,N/A,,Clear,180,2012-09-30 17:55:00
1:55 PM,73.9,41.0,30,29.96,10.0,Variable,3.5,-,N/A,,Clear,0,2012-09-30 18:55:00
2:55 PM,75.9,41.0,29,29.93,10.0,Variable,4.6,-,N/A,,Clear,0,2012-09-30 19:55:00
3:55 PM,77.0,39.9,26,29.92,10.0,Variable,3.5,-,N/A,,Clear,0,2012-09-30 20:55:00
4:55 PM,77.0,37.9,24,29.91,10.0,East,3.5,-,N/A,,Clear,80,2012-09-30 21:55:00
5:55 PM,75.9,39.9,27,29.90,10.0,South,3.5,-,N/A,,Clear,170,2012-09-30 22:55:00
6:55 PM,73.0,42.1,33,29.91,10.0,Calm,Calm,-,N/A,,Clear,0,2012-09-30 23:55:00
7:55 PM,62.1,44.1,52,29.93,10.0,East,4.6,-,N/A,,Clear,90,2012-10-01 00:55:00
8:55 PM,62.1,45.0,53,29.94,10.0,SSW,6.9,-,N/A,,Clear,200,2012-10-01 01:55:00
9:55 PM,60.1,44.1,55,29.93,10.0,South,5.8,-,N/A,,Clear,180,2012-10-01 02:55:00
10:55 PM,61.0,43.0,52,29.92,10.0,SSW,6.9,-,N/A,,Clear,200,2012-10-01 03:55:00
11:55 PM,57.2,42.8,59,29.95,10.0,WSW,3.5,-,N/A,,Clear,250,2012-10-01 04:55:00